WX2DX-2 Weather Reports


Display with metric or nautical units.
time (UTC)temp
F
wind
direction
speed
MPH
gust
MPH
rain 1hr
in
rain 24hr
in
rain mn
in
humidity
%
barometer
mb
20260504041515 40 255 0.0 2.0 0.00 0.00 0.00 70 1013.2
20260504040011 41 244 0.0 2.0 0.00 0.00 0.00 68 1013.3
20260504034508 42 230 1.0 3.0 0.00 0.00 0.00 68 1013.1
20260504033042 42 245 0.0 2.0 0.00 0.00 0.00 65 1013.1
20260504031540 42 217 1.0 3.0 0.00 0.00 0.00 66 1013.1
20260504030044 41 248 0.0 0.0 0.00 0.00 0.00 1013.0
20260504021553 43 237 0.0 2.0 0.00 0.00 0.00 68 1013.3
20260504020051 43 210 1.0 3.0 0.00 0.00 0.00 64 1013.2
20260504014602 45 223 0.0 2.0 0.00 0.00 0.00 60 1013.1
20260504013053 47 221 0.0 2.0 0.00 0.00 0.00 55 1013.1
20260504011554 49 219 0.0 3.0 0.00 0.00 0.00 53 1012.9
20260504010056 50 211 1.0 3.0 0.00 0.00 0.00 49 1012.9
20260504004549 51 238 2.0 6.0 0.00 0.00 0.00 47 1012.8
20260504003052 52 242 3.0 9.0 0.00 0.00 0.00 46 1012.8
20260504001547 53 266 3.0 8.0 0.00 0.00 0.00 45 1012.6
20260504000049 54 234 4.0 12.0 0.00 0.00 0.00 44 1012.5
20260503234550 54 228 6.0 12.0 0.00 0.00 0.00 42 1012.5
20260503233045 55 265 3.0 14.0 0.00 0.00 0.00 43 1012.5
20260503231545 55 273 7.0 15.0 0.00 0.00 0.00 41 1012.5
20260503230045 56 269 9.0 16.0 0.00 0.00 0.00 40 1012.5
20260503224544 56 273 6.0 16.0 0.00 0.00 0.00 43 1012.5
20260503223044 56 236 6.0 16.0 0.00 0.00 0.00 42 1012.5
20260503221542 56 200 8.0 15.0 0.00 0.00 0.00 42 1012.5
20260503220048 56 257 7.0 20.0 0.00 0.00 0.00 42 1012.6
20260503214540 57 254 7.0 15.0 0.00 0.00 0.00 39 1012.7
20260503213039 57 275 5.0 21.0 0.00 0.00 0.00 41 1012.6
20260503211537 57 315 6.0 11.0 0.00 0.00 0.00 40 1012.6
20260503210038 57 294 4.0 12.0 0.00 0.00 0.00 43 1012.6
20260503204537 56 235 7.0 19.0 0.00 0.00 0.00 40 1012.7
20260503203035 56 346 6.0 15.0 0.00 0.00 0.00 41 1012.7
20260503201534 57 316 5.0 21.0 0.00 0.00 0.00 40 1012.9
20260503200036 55 258 9.0 21.0 0.00 0.00 0.00 41 1013.1
20260503194632 56 267 9.0 19.0 0.00 0.00 0.00 41 1013.1
20260503193034 57 250 8.0 18.0 0.00 0.00 0.00 40 1013.4
20260503191527 56 275 8.0 22.0 0.00 0.00 0.00 42 1013.6
20260503190029 57 228 7.0 18.0 0.00 0.00 0.00 43 1013.8
20260503184524 54 319 5.0 17.0 0.00 0.00 0.00 43 1013.7
20260503183035 54 292 5.0 19.0 0.00 0.00 0.00 45 1014.1
20260503181522 55 265 7.0 21.0 0.00 0.00 0.00 45 1014.1
20260503180021 55 329 7.0 18.0 0.00 0.00 0.00 45 1014.1
20260503174520 55 226 7.0 16.0 0.00 0.00 0.00 44 1014.3
20260503173020 54 236 7.0 18.0 0.00 0.00 0.00 50 1014.3
20260503171517 55 299 5.0 14.0 0.00 0.00 0.00 44 1014.5
20260503081513 36 214 1.0 4.0 0.00 0.00 0.00 72 1014.5
20260503071510 35 274 1.0 8.0 0.00 0.00 0.00 72 1014.2
20260503060103 37 338 1.0 8.0 0.00 0.00 0.00 69 1014.2
20260503054603 37 332 1.0 9.0 0.00 0.02 0.00 68 1014.2
20260503053054 38 313 0.0 9.0 0.00 0.02 0.00 68 1014.3
20260503051551 38 281 1.0 4.0 0.00 0.02 0.00 67 1014.4
20260503050047 39 266 3.0 8.0 0.00 0.02 0.00 66 1014.4
20260503044550 39 315 3.0 10.0 0.00 0.03 0.00 65 1014.4
20260503043044 39 355 1.0 12.0 0.00 0.03 0.00 65 1014.3